Weather History for Newport, VT

Change the Weather History Date:

Tuesday, May 7, 2013

  Actual Average Record
Temperature  
Mean Temperature 62 °F -  
Max Temperature 78 °F 61 °F 85 °F (1959)
Min Temperature 46 °F 36 °F 22 °F (1966)
Degree Days  
Heating Degree Days 3    
Growing Degree Days 12 (Base 50)    
Moisture  
Dew Point 32 °F    
Average Humidity 33    
Maximum Humidity 59    
Minimum Humidity 15    
Precipitation  
Precipitation 0.00 in - - ()
Sea Level Pressure  
Sea Level Pressure 30.10 in    
Wind  
Wind Speed 5 mph (SW)    
Max Wind Speed 8 mph    
Max Gust Speed 17 mph    
Visibility 10 miles    
Events      
Averages and records for this station are not official NWS values.
T = Trace of Precipitation, MM = Missing Value Source: NWS Daily Summary

Daily Weather History Graph

Daily Weather History Graph

Search for Another Location

Airport:

Trip Planner

Search our weather history database for the weather conditions in past years. The results will help you decide how hot, cold, wet, or windy it might be!

Date:

Astronomy

May. 07, 2013 Rise Set
Actual Time 5:29 AM EDT 8:01 PM EDT
Civil Twilight 4:56 AM EDT 8:35 PM EDT
Nautical Twilight 4:15 AM EDT 9:16 PM EDT
Astronomical Twilight 3:28 AM EDT 10:04 PM EDT
Moon 4:08 AM EDT (5/7) 5:54 PM EDT (5/7)
Length of Visible Light 15h 38m
Length of Day
14h 32m
Waning Crescent, 5% of the Moon is Illuminated
May 7
Waning Crescent
May 9
New
May 18
First Quarter
May 25
Full
May 31
Last Quarter

Hourly Weather History & Observations

Time (EDT) Temp. Dew Point Humidity Pressure Visibility Wind Dir Wind Speed Gust Speed Precip Events Conditions
12:15 AM 59.2 °F 23.7 °F 26% 30.11 in 10.0 mi South 5.8 mph - N/A   Clear
12:35 AM 59.4 °F 23.5 °F 25% 30.11 in 10.0 mi South 5.8 mph - N/A   Clear
12:55 AM 58.3 °F 24.6 °F 27% 30.11 in 10.0 mi South 4.6 mph - N/A   Clear
1:15 AM 57.0 °F 25.0 °F 29% 30.11 in 10.0 mi South 5.8 mph - N/A   Clear
1:35 AM 56.7 °F 25.3 °F 30% 30.11 in 10.0 mi South 4.6 mph - N/A   Clear
1:55 AM 56.7 °F 25.3 °F 30% 30.11 in 10.0 mi South 5.8 mph - N/A   Clear
2:15 AM 55.4 °F 25.7 °F 32% 30.10 in 10.0 mi South 5.8 mph - N/A   Clear
2:35 AM 55.6 °F 24.4 °F 30% 30.11 in 10.0 mi South 5.8 mph - N/A   Clear
2:55 AM 55.9 °F 23.7 °F 29% 30.11 in 10.0 mi South 4.6 mph - N/A   Clear
3:15 AM 53.8 °F 25.3 °F 33% 30.11 in 10.0 mi SSW 5.8 mph - N/A   Clear
3:35 AM 53.6 °F 26.4 °F 35% 30.11 in 10.0 mi South 4.6 mph - N/A   Clear
4:15 AM 52.2 °F 27.9 °F 39% 30.11 in 10.0 mi South 3.5 mph - N/A   Clear
4:35 AM 50.5 °F 28.2 °F 42% 30.11 in 10.0 mi South 4.6 mph - N/A   Clear
4:55 AM 50.9 °F 28.0 °F 41% 30.11 in 10.0 mi South 3.5 mph - N/A   Clear
5:15 AM 49.3 °F 27.7 °F 43% 30.11 in 10.0 mi SSW 5.8 mph - N/A   Clear
5:35 AM 48.7 °F 27.7 °F 44% 30.11 in 10.0 mi SW 4.6 mph - N/A   Clear
5:55 AM 47.3 °F 28.9 °F 49% 30.12 in 10.0 mi South 5.8 mph - N/A   Clear
6:15 AM 46.9 °F 30.9 °F 54% 30.12 in 10.0 mi SSW 6.9 mph - N/A   Clear
6:35 AM 48.2 °F 31.6 °F 53% 30.12 in 10.0 mi SSW 5.8 mph - N/A   Clear
6:55 AM 48.4 °F 34.0 °F 58% 30.13 in 10.0 mi SSW 5.8 mph - N/A   Clear
7:15 AM 50.9 °F 34.5 °F 54% 30.13 in 10.0 mi SW 4.6 mph - N/A   Clear
7:35 AM 52.9 °F 35.4 °F 52% 30.13 in 10.0 mi SW 3.5 mph - N/A   Clear
7:55 AM 54.1 °F 35.8 °F 50% 30.14 in 10.0 mi SW 4.6 mph - N/A   Clear
8:15 AM 57.7 °F 37.8 °F 47% 30.14 in 10.0 mi SW 4.6 mph - N/A   Clear
8:35 AM 61.5 °F 37.4 °F 41% 30.14 in 10.0 mi SSW 5.8 mph - N/A   Clear
8:55 AM 63.3 °F 39.4 °F 41% 30.14 in 10.0 mi SSE 5.8 mph - N/A   Clear
9:15 AM 65.3 °F 40.8 °F 41% 30.14 in 10.0 mi South 4.6 mph - N/A   Clear
9:35 AM 66.4 °F 39.4 °F 37% 30.14 in 10.0 mi SSE 4.6 mph - N/A   Clear
9:55 AM 67.8 °F 38.7 °F 34% 30.13 in 10.0 mi SSE 4.6 mph - N/A   Clear
10:15 AM 69.4 °F 37.9 °F 32% 30.13 in 10.0 mi South 3.5 mph - N/A   Clear
10:35 AM 71.4 °F 39.6 °F 31% 30.13 in 10.0 mi SSW 3.5 mph - N/A   Clear
10:55 AM 72.3 °F 34.9 °F 25% 30.12 in 10.0 mi SSE 3.5 mph - N/A   Clear
11:15 AM 73.2 °F 33.3 °F 23% 30.12 in 10.0 mi SSW 4.6 mph - N/A   Clear
11:35 AM 74.1 °F 31.5 °F 21% 30.12 in 10.0 mi SSW 4.6 mph - N/A   Clear
11:55 AM 74.5 °F 31.1 °F 20% 30.11 in 10.0 mi North 3.5 mph - N/A   Clear
12:15 PM 74.5 °F 30.2 °F 20% 30.11 in 10.0 mi West 6.9 mph - N/A   Clear
12:35 PM 75.4 °F 33.1 °F 21% 30.10 in 10.0 mi Calm Calm - N/A   Clear
12:55 PM 75.6 °F 32.7 °F 21% 30.10 in 10.0 mi WNW 4.6 mph - N/A   Clear
1:15 PM 75.7 °F 34.9 °F 23% 30.09 in 10.0 mi North 8.1 mph - N/A   Clear
1:55 PM 76.5 °F 29.8 °F 18% 30.08 in 10.0 mi Calm Calm - N/A   Clear
2:15 PM 77.9 °F 35.6 °F 22% 30.08 in 10.0 mi WSW 5.8 mph - N/A   Clear
2:35 PM 77.9 °F 31.6 °F 19% 30.07 in 10.0 mi West 4.6 mph - N/A   Clear
2:55 PM 78.1 °F 27.3 °F 15% 30.07 in 10.0 mi SW 4.6 mph - N/A   Clear
3:15 PM 77.9 °F 27.9 °F 16% 30.06 in 10.0 mi NW 5.8 mph 17.3 mph N/A   Clear
3:35 PM 77.9 °F 29.7 °F 17% 30.06 in 10.0 mi NW 8.1 mph - N/A   Clear
3:55 PM 78.4 °F 32.0 °F 18% 30.05 in 10.0 mi WNW 6.9 mph - N/A   Clear
4:15 PM 77.7 °F 27.3 °F 16% 30.05 in 10.0 mi WNW 6.9 mph 16.1 mph N/A   Clear
4:35 PM 77.9 °F 30.9 °F 18% 30.05 in 10.0 mi West 8.1 mph - N/A   Clear
4:55 PM 78.3 °F 27.0 °F 15% 30.05 in 10.0 mi WSW 8.1 mph - N/A   Clear
5:15 PM 77.9 °F 29.1 °F 17% 30.05 in 10.0 mi Calm Calm - N/A   Clear
5:35 PM 77.0 °F 27.7 °F 16% 30.05 in 10.0 mi West 5.8 mph - N/A   Clear
5:55 PM 77.4 °F 28.8 °F 17% 30.05 in 10.0 mi NW 4.6 mph - N/A   Clear
6:15 PM 76.3 °F 30.0 °F 18% 30.05 in 10.0 mi WNW 5.8 mph - N/A   Clear
6:35 PM 76.1 °F 31.3 °F 19% 30.05 in 10.0 mi NW 3.5 mph - N/A   Clear
6:55 PM 73.6 °F 35.2 °F 25% 30.05 in 10.0 mi NW 5.8 mph - N/A   Clear
7:15 PM 72.3 °F 36.1 °F 27% 30.06 in 10.0 mi North 4.6 mph - N/A   Clear
7:35 PM 71.1 °F 36.1 °F 28% 30.07 in 10.0 mi Calm Calm - N/A   Clear
7:55 PM 70.0 °F 34.5 °F 27% 30.07 in 10.0 mi Calm Calm - N/A   Clear
8:15 PM 65.5 °F 35.2 °F 33% 30.08 in 10.0 mi Calm Calm - N/A   Clear
8:35 PM 68.0 °F 33.6 °F 28% 30.08 in 10.0 mi Calm Calm - N/A   Clear
8:55 PM 64.8 °F 35.4 °F 34% 30.09 in 10.0 mi Calm Calm - N/A   Clear
9:15 PM 64.4 °F 36.7 °F 36% 30.10 in 10.0 mi SW 3.5 mph - N/A   Clear
9:35 PM 62.2 °F 37.6 °F 40% 30.10 in 10.0 mi SW 4.6 mph - N/A   Clear
9:55 PM 61.7 °F 39.2 °F 43% 30.10 in 10.0 mi SSW 4.6 mph - N/A   Clear
10:15 PM 58.6 °F 40.1 °F 50% 30.11 in 10.0 mi SW 5.8 mph - N/A   Clear
10:35 PM 56.3 °F 41.0 °F 57% 30.11 in 10.0 mi SW 5.8 mph - N/A   Clear
10:55 PM 54.5 °F 40.5 °F 59% 30.11 in 10.0 mi SSW 5.8 mph - N/A   Clear
11:15 PM 53.4 °F 39.2 °F 59% 30.12 in 10.0 mi Calm Calm - N/A   Clear
11:35 PM 54.3 °F 39.9 °F 58% 30.12 in 10.0 mi South 3.5 mph - N/A   Clear
11:55 PM 55.6 °F 40.1 °F 56% 30.12 in 10.0 mi SW 4.6 mph - N/A   Clear